Regional Weather Roundup
Issued by NWS

Home | Current Version | Previous Version | Graphics & Text | Print | Product List | Glossary On
Versions: 1 2 3 4 5 6 7 8 9 10 11 12 13 14 15 16 17 18 19 20 21 22 23 24 25 26 27 28 29 30 31 32 33 34 35 36 37 38 39 40 41 42 43 44 45 46 47 48 49 50
733
ASUS43 KMPX 292201
RWRMN
WEATHER ROUNDUP FOR MINNESOTA
NATIONAL WEATHER SERVICE TWIN CITIES/CHANHASSEN MN
500 PM CDT SUN MAY 29 2016


NOTE: "FAIR" INDICATES FEW OR NO CLOUDS BELOW 12,000 FEET WITH NO
SIGNIFICANT WEATHER AND/OR OBSTRUCTIONS TO VISIBILITY. N/A MEANS
CURRENT SKY AND/OR WEATHER CONDITIONS ARE NOT AVAILABLE.

MNZ060>063-068>070-292300-
   Twin Cities Metro

CITY           SKY/WX    TMP DP  RH WIND       PRES   REMARKS
TWIN CITIES    MOSUNNY   78  54  43 W16G24    29.93F
ST PAUL        MOSUNNY   77  57  50 W14G21    29.93F
CRYSTAL        MOSUNNY   78  54  43 W14       29.92F
BLAINE         PTSUNNY   77  57  50 W10G22    29.94F
EDEN PRAIRIE   MOSUNNY   78  56  46 W10       29.93F
SOUTH ST PAUL  MOSUNNY   77  56  47 NW10      29.93F
LAKE ELMO      FAIR      75  59  57 W7        29.95F
$$
MNZ001>005-007-008-013>017-022>024-027-028-292300-
   Northwest Minnesota

CITY           SKY/WX    TMP DP  RH WIND       PRES   REMARKS
BEMIDJI        PTSUNNY   70  53  54 W15       29.93S
HALLOCK        SUNNY     72  54  53 NW13      29.90F
ROSEAU         MOSUNNY   70  57  64 W12G20    29.89S
WARROAD        PTSUNNY   66  57  72 W8        29.89S
THIEF RVR FALL MOSUNNY   70  52  52 W12       29.94S
CROOKSTON      MOSUNNY   73  52  46 NW12G23   29.92F
FOSSTON        MOSUNNY   70  50  49 W14       29.95S
DETROIT LAKES  SUNNY     72  52  49 NW12G18   29.96F
MOORHEAD       MOSUNNY   75  48  38 NW8G17    29.95S
PARK RAPIDS    PTSUNNY   68  50  52 W10       29.95S
MAHNOMEN       FAIR      68  56  65 NW9       29.95S
$$
MNZ006-009>011-018-025>026-292300-
   North Central Minnesota

CITY           SKY/WX    TMP DP  RH WIND       PRES   REMARKS
FLAG ISLAND    PTSUNNY   63  55  77 NW15      29.86F
INTL FALLS     PTSUNNY   64  55  72 W10       29.88S
WASKISH        MOSUNNY   68  59  73 SW10      29.90F
BIG FORK       MOSUNNY   68  54  60 W7        29.91S
LONGVILLE      MOSUNNY   70  54  56 W6        29.93F
GRAND RAPIDS   PTSUNNY   69  54  58 SW13G18   29.94S
CRANE LAKE     LGT RAIN  61  55  82 CALM      29.89S
ORR            CLOUDY    61  55  82 W3        29.87S
COOK           PTSUNNY   64  55  72 W13G22    29.90R
WALKER         CLOUDY    67  53  60 W7G18     29.93S
$$
MNZ012-019>021-037-292300-
   Northeast Minnesota

CITY           SKY/WX    TMP DP  RH WIND       PRES   REMARKS
DULUTH         MOSUNNY   69  53  56 NW17G26   29.89S
ELY            PTSUNNY   63  54  72 W12G21    29.87S
HIBBING        CLOUDY    64  53  67 NW15G22   29.91R
EVELETH        PTSUNNY   64  54  68 W16G25    29.91S
DULUTH HARBOR  MOSUNNY   72  55  56 W20G25    29.88S
TWO HARBORS      N/A     70  61  73 W12G20    29.85F
SILVER BAY     PTSUNNY   70  55  60 W7        29.83S
GRAND MARAIS     N/A     63  55  75 W12G18    29.79R
G MARAIS ARPRT CLOUDY    59  54  82 W12G23    29.83R HAZE
$$
MNZ029>031-032-039>041-046>048-054>057-064-292300-
   West Central Minnesota

CITY           SKY/WX    TMP DP  RH WIND       PRES   REMARKS
FERGUS FALLS   MOSUNNY   75  46  35 NW16G25   29.92S
WHEATON        SUNNY     79  46  31 NW16G23   29.97F
MORRIS         MOSUNNY   75  48  38 NW15G21   29.95F
ALEXANDRIA     PTSUNNY   72  52  49 NW9       29.97F
ELBOW LAKE     FAIR      75  51  43 NW14G21   29.97S
WADENA         MOSUNNY   72  54  53 NW12      29.95S
GLENWOOD       SUNNY     73  54  49 W14G24    29.97F VSB 1
APPLETON       MOSUNNY   81  43  26 NW10      29.96S
ORTONVILLE     MOSUNNY   79  41  25 NW15      29.97S
MADISON        SUNNY     77  43  29 NW14G22   29.98S
WILLMAR        FAIR      75  57  53 NW6       29.97S
$$
MNZ033>034-036-042>043-049>051-058-059-292300-
   Central Minnesota

CITY           SKY/WX    TMP DP  RH WIND       PRES   REMARKS
ST CLOUD       PTSUNNY   76  56  49 NW17      29.94S
SAUK CENTRE    FAIR      73  55  52 W13G21    29.96F
PAYNESVILLE    MOSUNNY   76  52  43 W12       29.97S
AITKIN         MOSUNNY   73  48  40 W6        29.92S
PINE RIVER     PTSUNNY   70  54  56 NW12      29.97S
BRAINERD       SUNNY     73  52  47 NW12      29.93F
STAPLES        MOSUNNY   73  52  46 NW12      29.94F
LONG PRAIRIE   PTSUNNY   72  55  56 W14       29.96S
LITTLE FALLS   CLOUDY    72  50  46 W8        29.94F
LITCHFIELD     CLOUDY    75  57  53 SW5       29.96F
BUFFALO        MOSUNNY   75  57  52 W6        29.95F
MAPLE LAKE     SUNNY     76  60  57 W6        29.95F
HUTCHINSON     TSTM      69  61  76 W23G41    30.00R
$$
MNZ037-044-045-052-053-292300-
   East Central Minnesota

CITY           SKY/WX    TMP DP  RH WIND       PRES   REMARKS
PRINCETON      MOSUNNY   77  55  47 W15       29.93F
MORA           MOSUNNY   72  54  53 NW14      29.94S
CAMBRIDGE        N/A     77  57  50 W7G17     29.92S
RUSH CITY      MOSUNNY   73  56  54 W7G16     29.92F
MOOSE LAKE     MOSUNNY   72  52  49 NW9G23    29.90S
HINCKLEY       FAIR      73  57  56 NW10G16   29.92F
CLOQUET        MOSUNNY   70  52  52 W15G23    29.91S
MCGREGOR       MOSUNNY   72  54  53 NW14G20   29.93S
$$
MNZ071>073-080-081-089-090-097-098-292300-
   Southwest Minnesota

CITY           SKY/WX    TMP DP  RH WIND       PRES   REMARKS
MONTEVIDEO     SUNNY     82  45  26 N16G24    29.98S
GRANITE FALLS  MOSUNNY   82  46  28 W17G30    29.98F
CANBY          SUNNY     80  47  32 W18       30.00S
MARSHALL       MOSUNNY   78  47  33 NW22      29.98F
REDWOOD FALLS  MOSUNNY   79  48  33 W16G23    29.96F
OLIVIA         PTSUNNY   75  54  46 NW6       29.96S
PIPESTONE      SUNNY     77  39  25 NW10G16   30.03S
WINDOM         SUNNY     79  45  29 W18G26    30.00S
WORTHINGTON    SUNNY     76  48  37 NW15      30.03
JACKSON        SUNNY     79  41  25 W17       30.01F
TRACY          SUNNY     79  49  35 NW13G22   30.00F
SLAYTON        SUNNY     76  42  28 W18       30.02F
$$
MNZ065>067-074>077-082>085-091>093-292300-
   South Central Minnesota

CITY           SKY/WX    TMP DP  RH WIND       PRES   REMARKS
MANKATO        MOSUNNY   79  54  41 W14       29.96F
NEW ULM        MOSUNNY   75  54  46 W16       29.96F
ST JAMES       SUNNY     73  52  46 W13       29.99S
FAIRMONT       MOSUNNY   79  52  38 W16G25    29.98F
GLENCOE        MOSUNNY   77  62  58 W8        29.95F
FARIBAULT      CLOUDY    72  59  64 W5        29.98F
OWATONNA       MOSUNNY   73  57  56 NW10      29.98S
WASECA         MOSUNNY   77  55  47 W14G22    29.98F
ALBERT LEA     MOSUNNY   79  57  47 W7        29.98F
$$
MNZ078>079-086>088-094>096-292300-
   Southeast Minnesota

CITY           SKY/WX    TMP DP  RH WIND       PRES   REMARKS
ROCHESTER      PTSUNNY   72  60  66 NW20      29.98S
RED WING       CLOUDY    79  55  44 W10       29.93F
STANTON        CLOUDY    74  60  61 SW7       29.95F
DODGE CENTER   MOSUNNY   73  57  56 NW8       29.99S
WINONA         PTSUNNY   73  57  56 NW9       29.95S
AUSTIN         CLOUDY    77  55  47 NW13G18   29.98S
PRESTON        CLOUDY    76  56  49 W16G23    29.98F
$$
ABBREVIATIONS USED IN REMARKS
   TC - TEMPERATURES IN CELSIUS
  WCI - WIND CHILL INDEX
   HX - HEAT INDEX
  VSB - VISIBILITY
$$




USA.gov is the U.S. government's official web portal to all federal, state and local government web resources and services.